Piedras Negras, Mexico

1:10 AM CDT on April 26, 2017 (GMT -0500)
Piedras Negras International

Weather History for MMPG - November, 2012

Change the Weather History Date:

Sunday, November 18, 2012

  Actual Average Record
Temperature  
Mean Temperature 62 °F -  
Max Temperature 74 °F 71 °F 89 °F (2013)
Min Temperature 50 °F 53 °F 37 °F (2014)
Degree Days  
Heating Degree Days 3    
Growing Degree Days 12 (Base 50)    
Moisture  
Dew Point 54 °F    
Average Humidity 63    
Maximum Humidity 79    
Minimum Humidity 51    
Precipitation  
Precipitation 0.00 in - - ()
Sea Level Pressure  
Sea Level Pressure 30.20 in    
Wind  
Wind Speed 6 mph ()    
Max Wind Speed 14 mph    
Max Gust Speed -    
Visibility 11.2 miles    
Events      
Averages and records for this station are not official NWS values.
T = Trace of Precipitation, MM = Missing Value Source: Averaged Metar Reports

Daily Weather History Graph

Daily Weather History Graph

Search for Another Location

Airport or City:

Trip Planner

Search our weather history database for the weather conditions in past years. The results will help you decide how hot, cold, wet, or windy it might be!

Date:

Astronomy

Nov. 18, 2012 Rise Set
Actual Time 7:07 AM CST 5:46 PM CST
Civil Twilight 6:42 AM CST 6:11 PM CST
Nautical Twilight 6:13 AM CST 6:40 PM CST
Astronomical Twilight 5:45 AM CST 7:08 PM CST
Moon 11:40 AM CST (11/18) 11:01 PM CST (11/18)
Length of Visible Light 11h 29m
Length of Day
10h 39m
Waxing Crescent, 30% of the Moon is Illuminated
Nov 18
Waxing Crescent
Nov 20
First Quarter
Nov 28
Full
Dec 6
Last Quarter
Dec 13
New

Hourly Weather History & Observations

Time (CST) Temp. Dew Point Humidity Pressure Visibility Wind Dir Wind Speed Gust Speed Precip Events Conditions
2:45 AM 56 °F 50 °F 73% 30.27 in 12 mi ESE 2.2 mph - -   Mostly Cloudy
5:40 AM 54 °F 49 °F 79% 30.25 in 12 mi SE 2.2 mph - -   Partly Cloudy
7:40 AM 53.6 °F 46.4 °F 77% 30.20 in 10.0 mi SE 6.9 mph - N/A   Scattered Clouds
8:37 AM 59 °F 52 °F 70% 30.25 in 14 mi SE 4.5 mph - -   Partly Cloudy
8:40 AM 59.0 °F 50.0 °F 72% 30.17 in 10.0 mi SE 9.2 mph - N/A   Mostly Cloudy
9:40 AM 64.4 °F 51.8 °F 64% 30.24 in 10.0 mi SE 13.8 mph - N/A   Mostly Cloudy
10:40 AM 66.2 °F 55.4 °F 68% 30.24 in 10.0 mi SE 13.8 mph - N/A   Mostly Cloudy
11:36 AM 69 °F 56 °F 54% 30.26 in 14 mi SE 4.5 mph - -   Mostly Cloudy
11:40 AM 68.0 °F 53.6 °F 60% 30.16 in 10.0 mi SE 11.5 mph - N/A   Overcast
12:40 PM 68.0 °F 53.6 °F 60% 30.21 in 10.0 mi SE 6.9 mph - N/A   Overcast
1:40 PM 69.8 °F 55.4 °F 60% 30.17 in 10.0 mi SE 9.2 mph - N/A   Overcast
2:40 PM 71.6 °F 53.6 °F 53% 30.09 in 10.0 mi SE 9.2 mph - N/A   Mostly Cloudy
2:45 PM 73 °F 58 °F 51% 30.13 in 14 mi SE 6.7 mph - -   Mostly Cloudy
3:40 PM 71.6 °F 53.6 °F 53% 30.15 in 10.0 mi SE 11.5 mph - N/A   Mostly Cloudy
4:40 PM 69.8 °F 55.4 °F 60% 30.16 in 10.0 mi SE 9.2 mph - N/A   Overcast
5:36 PM 71 °F 59 °F 57% 30.18 in 14 mi SSE 6.7 mph - -   Overcast
5:40 PM 69.8 °F 55.4 °F 60% 30.12 in 10.0 mi SE 8.1 mph - N/A   Overcast
6:40 PM 69.8 °F 55.4 °F 60% 30.17 in 10.0 mi SE 6.9 mph - N/A   Overcast
8:40 PM 69 °F 58 °F 61% 30.32 in 12 mi South 2.2 mph - -   Overcast
11:30 PM 66 °F 58 °F 67% 30.22 in 12 mi SE 2.2 mph - -   Overcast